User: anonymous   Login
Location: Unspecified
(0.0000°N, 0.0000°E)
Time: 02:12:08
(UTC+00:00)
Language:

STARLINK-2717 - Orbit

View from above orbital plane
View from above orbital plane
View from above satellite
View from above satellite

Ground track
Ground track

The orbit is defined by the following mean orbital elements,

1 48659U          26145.10628742 +.00000000 +00000-0 +45140-4 0 00001
2 48659  53.1597 118.4392 0001379  81.7950 278.3208 15.31694371    02
Epoch (UTC): 25 May 2026 02:33:03
Eccentricity: 0.0001379
inclination: 53.1597°
perigee height: 470 km
apogee height: 472 km
right ascension of ascending node: 118.4392°
argument of perigee: 81.7950°
revolutions per day: 15.31694371
mean anomaly at epoch: 278.3208°

The dashed part of the orbit path shows where the satellite is in the earth's shadow,  

DLR